Weather Roundup
Issued by NWS Chicago, IL

Home | Current Version | Previous Version | Graphics & Text | Print | Product List | Glossary On
Versions: 1 2 3 4 5 6 7 8 9 10 11 12 13 14 15 16 17 18 19 20 21 22 23 24 25 26 27 28 29 30 31 32 33 34 35 36 37 38 39 40 41 42 43 44 45 46 47 48 49 50
000
NZUS59 KLOT 130103
HRRLOT

CHICAGO AREA WEATHER ROUNDUP
NATIONAL WEATHER SERVICE CHICAGO/ROMEOVILLE IL
700 PM CST FRI FEB 12 2016

NOTE: "FAIR" INDICATES FEW OR NO CLOUDS BELOW 12,000 FEET WITH NO
SIGNIFICANT WEATHER AND/OR OBSTRUCTIONS TO VISIBILITY.

* THESE STATIONS ARE NOT UNDER NWS QUALITY CONTROL. THEY ALSO MAY NOT
  REPORT WEATHER SUCH AS PRECIPITATION OR FOG.

ILZ005-006-012>014-019>023-130200-
NORTHEAST ILLINOIS

CITY           SKY/WX    TMP DP  RH WIND       PRES   REMARKS
OHARE          PTCLDY    15  -4  42 NW20G35   30.32R WCI  -2
MIDWAY         PTCLDY    18  -5  36 NW18G29   30.32R WCI   2
AURORA         CLEAR     16  -1  47 N18       30.34R WCI   0
LANSING*       CLEAR     18  -2  41 NW14G25   30.31R WCI   4
WAUKEGAN       CLEAR     11  -5  48 NW14G28   30.32R WCI  -5
DUPAGE AIRPORT CLEAR     15  -4  42 NW23G29   30.32R WCI  -3
WHEELING       CLEAR     14  -4  44 NW21G35   30.34R WCI  -4
MORRIS*        CLEAR     17   5  58 NW15      30.33R WCI   3
$$

WIZ051-052-058>065-066-070>072-130200-
SOUTHEAST WISCONSIN

CITY           SKY/WX    TMP DP  RH WIND       PRES   REMARKS
MILWAUKEE      CLEAR     11  -7  44 NW17G28   30.33R WCI  -6
KENOSHA*       CLEAR     11  -5  48 NW18G26   30.33R WCI  -7
RACINE*        CLEAR     11  -8  42 NW20      30.34R WCI  -7
BURLINGTON     CLEAR      9  -8  47 N14G20    30.34R WCI  -8
WAUKESHA       CLEAR      7  -8  51 NW16G22   30.33R WCI -11
$$

INZ001>003-010>013-019-020-130200-
NORTHWEST INDIANA

CITY           SKY/WX    TMP DP  RH WIND       PRES   REMARKS
GARY*          PTCLDY    19  -4  35 NW29G41   30.31R WCI   1
MICHIGAN CITY* NOT AVBL
RENSSELAER*    NOT AVBL
VALPARAISO     CLOUDY    19   0  43 NW22G35   30.26R WCI   2
$$

LMZ740>746-130200-
SOUTHERN LAKE MICHIGAN

STATION/POSITION TIME  SKY/WX   TEMP WIND        PRES    VSBY
                                AIR  DIR/SP/G
                 (UTC)          (F)  (DEG/KT/KT) (MB)    (MI)
HARRISON CRIB    0000            20  310/ 27/ 32   N/A
BURNHAM HARBOR   0100            18  330/  9/ 22   N/A
CALUMET HARBOR   0000            18              1024.3R
BURNS HARBOR     0004            20  320/ 23/ 29 1023.7R
MICHIGAN CITY    0000            20  290/ 28/ 34   N/A
$$

ABBREVIATIONS USED IN REMARKS
   TC - TEMPERATURE IN CELSIUS
  WCI - WIND CHILL INDEX
   HX - HEAT INDEX
  VSB - VISIBILITY
$$



USA.gov is the U.S. government's official web portal to all federal, state and local government web resources and services.